Location: A M Scott House
(33.1968°N, 96.6264°W)
Time: 22:45:02
(UTC+00:00)

Daily predictions for brighter satellites

Satellite Brightness Start Highest point End
(mag) Time Altitude Azimuth Time Altitude Azimuth Time Altitude Azimuth
Cosmos 2082 Rocket 4.0 12:06:06 12° NNW 12:06:06 12° NNW 12:06:57 10° NNW
BREEZE-M DEB (TANK) 2.4 12:00:39 10° SW 12:04:14 84° NW 12:06:32 10° NE
Cosmos 1892 Rocket 3.9 12:05:06 10° SSW 12:09:09 39° W 12:13:16 10° N
SL-16 R/B 2.7 12:03:55 10° NNW 12:09:32 61° ENE 12:15:06 10° SSE
SWAS 4.2 12:07:26 16° NNW 12:10:31 69° WSW 12:14:30 10° SSE
Cosmos 1937 Rocket 3.4 12:08:19 10° NNW 12:13:23 62° WSW 12:18:26 10° S
Cosmos 858 Rocket 4.5 12:09:04 10° NNW 12:14:16 90° E 12:19:27 10° SSE
ARIANE 5 R/B 4.5 12:18:18 10° NE 12:23:01 34° E 12:27:41 10° SSE
COSMO-SKYMED 1 2.5 12:19:25 10° S 12:23:26 55° W 12:27:28 10° NNW
OAO 2 Rocket 3.5 12:21:05 10° WSW 12:26:16 78° SSE 12:31:22 10° ENE
Cosmos-2242 2.9 12:23:56 10° N 12:28:09 81° W 12:32:19 10° S
Cosmos 1092 Rocket 4.3 12:24:03 10° SSW 12:30:02 45° W 12:35:59 10° N
Cosmos 1980 Rocket 3.8 12:28:37 13° W 12:30:09 14° W 12:32:54 10° SW
IRIDIUM 114 4.4 12:26:10 10° S 12:31:23 87° E 12:36:37 10° N
Cosmos 1814 Rocket 4.0 12:26:24 10° SSW 12:31:30 58° WNW 12:36:41 10° N
Cosmos 2278 3.8 12:27:35 10° NNW 12:33:16 86° ENE 12:38:53 10° SSE
BREEZE-M DEB (TANK) 4.4 12:31:22 10° NNW 12:34:25 25° NNE 12:40:53 10° E
Cosmos 1553 Rocket 4.3 12:29:41 10° N 12:36:06 76° E 12:42:30 10° S
ATLAS 2AS CENTAUR R/B 2.9 12:29:15 10° SSW 12:36:25 82° ESE 12:43:23 10° NNE
CZ-2D R/B 4.1 12:35:22 10° NNE 12:38:25 44° E 12:41:27 10° S
Cosmos 405 Rocket 2.3 12:35:54 10° SSW 12:39:04 54° W 12:42:16 10° N
IRIDIUM 103 4.3 12:35:20 10° S 12:40:32 75° W 12:45:46 10° N
Centaur AC-119 4.1 12:35:25 10° WSW 12:40:32 37° S 12:45:05 10° ESE
CBERS-1 4.0 12:37:40 10° N 12:42:41 62° WNW 12:47:40 10° SSW
CORIOLIS 4.4 12:37:28 10° NNE 12:42:53 80° ESE 12:48:17 10° S
Cosmos 1602 Rocket 4.0 12:38:58 10° S 12:43:21 69° E 12:47:46 10° NNE
COSMOS 2455 3.8 12:38:56 10° NW 12:43:59 28° WSW 12:48:59 10° SSW
CZ-3 R/B 3.7 12:34:35 10° W 12:45:49 23° SW 12:51:07 10° S
Tiangong -1.8 12:46:44 10° WNW 12:49:54 56° SSW 12:53:04 10° SE
Cosmos 2058 Rocket 3.6 12:46:50 10° NNW 12:50:55 37° W 12:54:57 10° SSW
OAO 3 Copernicus 4.3 12:46:13 10° W 12:51:14 72° N 12:56:14 10° E
MOS 1 Rocket 4.2 12:48:45 10° NNE 12:54:04 63° E 12:59:11 10° S
Cosmos 1833 4.4 12:51:33 10° SW 12:56:57 48° WNW 13:02:26 10° N
SJ-12 4.5 23:43:23 10° SE 23:46:41 30° ENE 23:50:01 10° N
Cosmos 1484 Rocket 3.7 23:45:12 10° S 23:48:37 49° W 23:52:02 10° NNW
Cosmos 2208 Rocket 4.0 23:43:39 10° N 23:48:47 64° ENE 23:53:55 10° SSE
BlueWalker 3 2.7 23:45:50 10° NNW 23:49:01 28° NE 23:52:12 10° E
Cosmos 1980 Rocket 3.1 23:44:26 10° SSE 23:49:12 28° ESE 23:53:56 10° NE
Intercosmos 24 4.1 23:47:16 10° NNW 23:50:49 67° W 23:54:32 10° S
Hubble Space Telescope 2.7 23:48:38 10° SSW 23:51:08 17° SSE 23:53:40 10° ESE
CZ-4C R/B 3.7 23:45:19 10° N 23:52:01 34° NE 23:59:49 10° ESE
Cosmos 1626 Rocket 4.0 23:50:11 10° NNW 23:54:27 66° W 23:58:41 10° S
Cosmos 1606 Rocket 3.7 23:50:51 10° S 23:55:05 52° E 23:59:23 10° NNE
